Aérodrome :
LOGIN :

S'inscrire | Disclaimer

   EN    FR    IT 

 










Légende :    VFR   VFR Marginal   IFR   IFR Intensif   IFR Très Intensif
Visi : 
Plafond : 
>= 8 km
>= 3000ft
5 à 8 km
1000 à 3000 ft
1500m à 5 km
500 à 1000 ft
800 à 1500m
200 à 500 ft
< 800m
< 200 ft
Symboles :   Orages  Brouillard  Fortes neiges  Fortes précipitations  Vent > 20 kt
SIGMETs :   Divers  Orages  Givrage  Turbulence  Onde Orograph.  Cendres Volcan.







- Altitude de l'aérodrome : 19 ft
- Code IATA : LCY
- Voir les cartes d'approche


EGLC - London City

DERNIER METAR :
  • 211720Z AUTO 11007KT 9999 FEW034 05/01 Q1017

METARs EXPIRÉS :
  • 211650Z AUTO 12008KT 9999 NCD 06/02 Q1017
  • 211620Z AUTO 12007KT 9999 BKN035 06/02 Q1016
  • 211550Z AUTO 12008KT 9999 SCT033 06/01 Q1016
  • 211520Z AUTO 12007KT 9999 FEW034 07/01 Q1015
  • 211450Z AUTO 13008KT 9999 BKN030 07/00 Q1015

TAF TAF EGLC
Valide du 21 à 18h jusqu'au 21 à 21h UTC


211705Z 2118/2121 11006KT 9999 SCT035
PROB40 2118/2120 8000
BECMG 2120/2121 7000
ATIS : +44 20 7646 0224
Pas de NOTAMs connus pour ce terrain.



MET'MAP, la Météo Aéronautique d'un coup d'oeil ! - Copyright ORBIFLY Décembre 2007 - Disclaimer

ORBIFLY MET'MAP TEAM :

Programmation & Développement : Alexandra Zaïnal
Conception & Développement : Baudouin d'Aumeries
Co-Programmation & Développement : Marc-Olivier Méhu
Soutien technique & logistique : Manuel Goepfert

Contact : metmap@orbifly.com




SOURCES & CREDITS :

   NOAA